RYR1UN LIBD-LBSF

Flight info

Callsign RYR1UN
Flight time 1h 2m
Altitude 35000
Route VURKE DCT PAPIZ DCT MAVAR DCT BUREK DCT SKJ DCT SIN T215 VELBA T343 MOREK
Aircraft B738/M-SDE3FGILRWY/SB1

Departure

Time 2026-04-22 17:24
Airport Bari Karol Wojtyła International Airport (LIBD)

Arrival

Time 2026-04-22 18:27
Airport Sofia Airport (LBSF)
Time Latitude Longitude Altitude Speed Heading
2026-04-22 16:55 41.13490 16.76240 153 ft 0 kts 159°
2026-04-22 17:14 41.13495 16.76237 153 ft 2 kts 158°
2026-04-22 17:15 41.13505 16.76232 153 ft 2 kts 159°
2026-04-22 17:15 41.13526 16.76221 153 ft 2 kts 156°
2026-04-22 17:15 41.13541 16.76212 152 ft 2 kts 152°
2026-04-22 17:15 41.13554 16.76200 152 ft 2 kts 129°
2026-04-22 17:16 41.13557 16.76179 153 ft 2 kts 69°
2026-04-22 17:16 41.13552 16.76159 154 ft 2 kts 70°
2026-04-22 17:16 41.13551 16.76156 154 ft 0 kts 70°
2026-04-22 17:18 41.13553 16.76165 153 ft 4 kts 70°
2026-04-22 17:18 41.13579 16.76256 151 ft 15 kts 70°
2026-04-22 17:19 41.13628 16.76432 144 ft 0 kts 69°
2026-04-22 17:19 41.13631 16.76442 144 ft 4 kts 69°
2026-04-22 17:20 41.13774 16.76557 138 ft 17 kts
2026-04-22 17:20 41.13891 16.76852 127 ft 15 kts 70°
2026-04-22 17:21 41.13930 16.76995 127 ft 19 kts 70°
2026-04-22 17:21 41.14026 16.77331 121 ft 19 kts 62°
2026-04-22 17:22 41.14218 16.77389 112 ft 3 kts 306°
2026-04-22 17:22 41.14221 16.77369 113 ft 2 kts 271°
2026-04-22 17:22 41.14218 16.77352 114 ft 0 kts 251°
2026-04-22 17:23 41.14192 16.77256 116 ft 40 kts 249°
2026-04-22 17:24 41.13991 16.76546 135 ft 123 kts 249°
2026-04-22 17:24 41.13626 16.75230 369 ft 174 kts 250°
2026-04-22 17:24 41.13174 16.73605 1069 ft 201 kts 252°
2026-04-22 17:24 41.12626 16.71898 2194 ft 196 kts 249°
2026-04-22 17:25 41.12104 16.70164 3070 ft 207 kts 253°
2026-04-22 17:25 41.11619 16.68367 3890 ft 211 kts 253°
2026-04-22 17:25 41.11118 16.66528 4740 ft 212 kts 252°
2026-04-22 17:25 41.10605 16.64678 5517 ft 216 kts 252°
2026-04-22 17:26 41.10081 16.62810 6343 ft 217 kts 252°
2026-04-22 17:26 41.09542 16.60897 6888 ft 230 kts 252°
2026-04-22 17:26 41.09040 16.58769 7022 ft 256 kts 265°
2026-04-22 17:26 41.09319 16.56362 7065 ft 280 kts 294°
2026-04-22 17:27 41.10555 16.54250 7070 ft 304 kts 320°
2026-04-22 17:27 41.12432 16.53031 7036 ft 295 kts 346°
2026-04-22 17:27 41.14361 16.53208 7031 ft 268 kts 19°
2026-04-22 17:27 41.15888 16.54403 7044 ft 244 kts 29°
2026-04-22 17:28 41.17274 16.55606 7033 ft 237 kts 29°
2026-04-22 17:28 41.18661 16.56786 7031 ft 236 kts 28°
2026-04-22 17:28 41.20046 16.57944 7024 ft 236 kts 28°
2026-04-22 17:28 41.21419 16.59082 7053 ft 236 kts 28°
2026-04-22 17:29 41.22827 16.60269 7064 ft 238 kts 33°
2026-04-22 17:29 41.23824 16.62005 7069 ft 249 kts 68°
2026-04-22 17:29 41.24226 16.64408 7077 ft 284 kts 80°
2026-04-22 17:29 41.24444 16.67062 7056 ft 292 kts 83°
2026-04-22 17:30 41.24570 16.68873 7068 ft 292 kts 82°
2026-04-22 17:30 41.24840 16.72411 7036 ft 290 kts 82°
2026-04-22 17:30 41.25062 16.75067 7040 ft 289 kts 81°
2026-04-22 17:30 41.25291 16.77714 7038 ft 288 kts 81°
2026-04-22 17:31 41.25472 16.80369 7036 ft 290 kts 90°
2026-04-22 17:31 41.25107 16.83000 7065 ft 291 kts 104°
2026-04-22 17:31 41.24571 16.85601 7054 ft 292 kts 105°
2026-04-22 17:31 41.24023 16.88206 7047 ft 294 kts 105°
2026-04-22 17:32 41.23477 16.90826 7047 ft 295 kts 104°
2026-04-22 17:32 41.22937 16.93456 7061 ft 295 kts 104°
2026-04-22 17:32 41.22401 16.96087 7063 ft 296 kts 104°
2026-04-22 17:32 41.21862 16.98756 7462 ft 302 kts 104°
2026-04-22 17:33 41.21504 17.00527 8161 ft 299 kts 104°
2026-04-22 17:33 41.20773 17.04155 8955 ft 305 kts 104°
2026-04-22 17:33 41.20227 17.06869 9468 ft 304 kts 104°
2026-04-22 17:33 41.19678 17.09592 9997 ft 308 kts 104°
2026-04-22 17:34 41.19126 17.12326 10477 ft 313 kts 104°
2026-04-22 17:34 41.18572 17.15171 10971 ft 316 kts 99°
2026-04-22 17:34 41.18557 17.18042 11410 ft 317 kts 80°
2026-04-22 17:34 41.18853 17.20949 11877 ft 320 kts 79°
2026-04-22 17:35 41.19175 17.23885 12334 ft 323 kts 79°
2026-04-22 17:35 41.19501 17.26847 12804 ft 325 kts 79°
2026-04-22 17:35 41.19823 17.29830 13274 ft 330 kts 79°
2026-04-22 17:35 41.20151 17.32917 13794 ft 344 kts 79°
2026-04-22 17:36 41.20486 17.36125 14253 ft 358 kts 79°
2026-04-22 17:36 41.20829 17.39451 14704 ft 370 kts 79°
2026-04-22 17:36 41.21180 17.42891 15187 ft 382 kts 79°
2026-04-22 17:36 41.21538 17.46438 15688 ft 392 kts 79°
2026-04-22 17:37 41.21902 17.50072 16203 ft 402 kts 79°
2026-04-22 17:37 41.22273 17.53785 16728 ft 410 kts 79°
2026-04-22 17:37 41.22647 17.57561 17251 ft 414 kts 79°
2026-04-22 17:37 41.23023 17.61365 17787 ft 417 kts 79°
2026-04-22 17:38 41.23401 17.65205 18320 ft 420 kts 79°
2026-04-22 17:38 41.23780 17.69063 18792 ft 424 kts 78°
2026-04-22 17:38 41.24163 17.72961 19267 ft 427 kts 78°
2026-04-22 17:38 41.24547 17.76887 19751 ft 430 kts 78°
2026-04-22 17:39 41.24933 17.80847 20253 ft 435 kts 78°
2026-04-22 17:39 41.25323 17.84861 20758 ft 441 kts 78°
2026-04-22 17:39 41.26110 17.93013 21883 ft 448 kts 78°
2026-04-22 17:40 41.26505 17.97132 22493 ft 450 kts 77°
2026-04-22 17:40 41.26900 18.01263 23111 ft 452 kts 77°
2026-04-22 17:40 41.27288 18.05415 23707 ft 455 kts 79°
2026-04-22 17:40 41.27150 18.09655 24213 ft 465 kts 99°
2026-04-22 17:41 41.26082 18.13707 24757 ft 466 kts 119°
2026-04-22 17:41 41.24474 18.17430 25333 ft 465 kts 122°
2026-04-22 17:41 41.22793 18.21099 25885 ft 464 kts 123°
2026-04-22 17:41 41.21100 18.24742 26449 ft 464 kts 123°
2026-04-22 17:42 41.19413 18.28396 27026 ft 463 kts 123°
2026-04-22 17:42 41.17748 18.32043 27609 ft 462 kts 123°
2026-04-22 17:42 41.16650 18.34471 28011 ft 461 kts 123°
2026-04-22 17:42 41.14460 18.39340 28816 ft 458 kts 122°
2026-04-22 17:43 41.12832 18.42971 29399 ft 458 kts 122°
2026-04-22 17:43 41.11185 18.46641 29520 ft 469 kts 122°
2026-04-22 17:43 41.10070 18.49124 29576 ft 477 kts 122°
2026-04-22 17:43 41.07763 18.54250 29699 ft 491 kts 122°
2026-04-22 17:44 41.06595 18.56842 29752 ft 498 kts 122°
2026-04-22 17:44 41.02965 18.64884 29906 ft 518 kts 122°
2026-04-22 17:44 41.00491 18.70355 30133 ft 527 kts 122°
2026-04-22 17:45 40.98608 18.74517 30512 ft 527 kts 122°
2026-04-22 17:45 40.96721 18.78681 30870 ft 528 kts 122°
2026-04-22 17:45 40.94828 18.82848 31187 ft 529 kts 122°
2026-04-22 17:45 40.93557 18.85683 31395 ft 531 kts 119°
2026-04-22 17:46 40.92229 18.90231 31617 ft 532 kts 99°
2026-04-22 17:46 40.91879 18.95057 31893 ft 525 kts 82°
2026-04-22 17:46 40.92375 18.99792 32194 ft 515 kts 68°
2026-04-22 17:46 40.93598 19.04157 32468 ft 500 kts 53°
2026-04-22 17:47 40.95382 19.07979 32839 ft 489 kts 46°
2026-04-22 17:47 40.97284 19.11693 33245 ft 486 kts 45°
2026-04-22 17:47 40.99203 19.15367 33618 ft 485 kts 45°
2026-04-22 17:47 41.01119 19.19044 33973 ft 485 kts 45°
2026-04-22 17:48 41.03018 19.22733 34286 ft 485 kts 46°
2026-04-22 17:48 41.04903 19.26437 34566 ft 485 kts 46°
2026-04-22 17:48 41.06780 19.30161 34829 ft 485 kts 47°
2026-04-22 17:48 41.08644 19.33884 35118 ft 485 kts 47°
2026-04-22 17:49 41.10504 19.37615 35420 ft 484 kts 47°
2026-04-22 17:49 41.12355 19.41335 35701 ft 484 kts 47°
2026-04-22 17:49 41.14206 19.45057 35966 ft 483 kts 48°
2026-04-22 17:49 41.16056 19.48778 36247 ft 483 kts 48°
2026-04-22 17:50 41.17903 19.52497 36545 ft 481 kts 48°
2026-04-22 17:50 41.19744 19.56209 36826 ft 481 kts 49°
2026-04-22 17:50 41.21580 19.59911 37078 ft 481 kts 49°
2026-04-22 17:50 41.23418 19.63622 37324 ft 480 kts 49°
2026-04-22 17:51 41.25246 19.67319 37620 ft 479 kts 49°
2026-04-22 17:51 41.27072 19.71017 37899 ft 478 kts 49°
2026-04-22 17:51 41.28893 19.74708 38170 ft 477 kts 50°
2026-04-22 17:51 41.30708 19.78392 38397 ft 477 kts 50°
2026-04-22 17:52 41.32526 19.82084 38606 ft 477 kts 50°
2026-04-22 17:52 41.34335 19.85765 38800 ft 476 kts 50°
2026-04-22 17:52 41.36146 19.89453 38961 ft 476 kts 50°
2026-04-22 17:53 41.39781 19.96864 39002 ft 479 kts 50°
2026-04-22 17:53 41.43407 20.04286 39000 ft 477 kts 51°
2026-04-22 17:54 41.47018 20.11693 39012 ft 475 kts 51°
2026-04-22 17:54 41.50582 20.19021 39012 ft 474 kts 51°
2026-04-22 17:55 41.54159 20.26390 39013 ft 472 kts 51°
2026-04-22 17:55 41.57719 20.33742 39005 ft 470 kts 51°
2026-04-22 17:56 41.61256 20.41067 39032 ft 469 kts 51°
2026-04-22 17:56 41.64784 20.48385 39034 ft 469 kts 51°
2026-04-22 17:57 41.67907 20.56121 39032 ft 481 kts 66°
2026-04-22 17:57 41.69989 20.64643 39040 ft 483 kts 68°
2026-04-22 17:58 41.71995 20.73242 39044 ft 484 kts 68°
2026-04-22 17:58 41.74050 20.81817 39058 ft 485 kts 67°
2026-04-22 17:59 41.76143 20.90425 39069 ft 486 kts 67°
2026-04-22 17:59 41.78233 20.99040 39072 ft 487 kts 68°
2026-04-22 18:00 41.79968 21.06233 39063 ft 488 kts 68°
2026-04-22 18:00 41.82399 21.16352 39057 ft 488 kts 68°
2026-04-22 18:01 41.84472 21.25011 39060 ft 488 kts 68°
2026-04-22 18:01 41.86541 21.33681 39047 ft 487 kts 68°
2026-04-22 18:02 41.88590 21.42298 38628 ft 492 kts 68°
2026-04-22 18:02 41.89625 21.46665 38118 ft 490 kts 68°
2026-04-22 18:02 41.90653 21.51018 37547 ft 489 kts 68°
2026-04-22 18:02 41.91676 21.55353 37089 ft 485 kts 68°
2026-04-22 18:03 41.92690 21.59654 36695 ft 481 kts 68°
2026-04-22 18:03 41.93561 21.63989 36450 ft 482 kts 76°
2026-04-22 18:03 41.93992 21.68426 36453 ft 475 kts 82°
2026-04-22 18:03 41.94263 21.72788 36431 ft 462 kts 83°
2026-04-22 18:04 41.94491 21.77032 36421 ft 449 kts 83°
2026-04-22 18:04 41.94713 21.81153 36419 ft 436 kts 83°
2026-04-22 18:04 41.94944 21.85200 36437 ft 435 kts 83°
2026-04-22 18:05 41.95450 21.93407 36463 ft 447 kts 83°
2026-04-22 18:05 41.95987 22.01834 36433 ft 454 kts 81°
2026-04-22 18:05 41.96540 22.05959 36054 ft 448 kts 69°
2026-04-22 18:06 41.97524 22.09969 35131 ft 458 kts 66°
2026-04-22 18:06 41.98637 22.14039 33900 ft 478 kts 65°
2026-04-22 18:06 41.99846 22.18344 32454 ft 499 kts 65°
2026-04-22 18:06 42.01068 22.22746 31493 ft 507 kts 66°
2026-04-22 18:07 42.02286 22.27227 30500 ft 514 kts 66°
2026-04-22 18:07 42.03492 22.31759 29722 ft 511 kts 67°
2026-04-22 18:07 42.04665 22.36232 28858 ft 503 kts 68°
2026-04-22 18:07 42.05806 22.40622 28008 ft 493 kts 68°
2026-04-22 18:08 42.06911 22.44882 27228 ft 484 kts 68°
2026-04-22 18:08 42.08032 22.49197 26306 ft 480 kts 68°
2026-04-22 18:08 42.09127 22.53411 25413 ft 475 kts 69°
2026-04-22 18:08 42.10196 22.57529 24604 ft 470 kts 69°
2026-04-22 18:09 42.11268 22.61663 23752 ft 466 kts 69°
2026-04-22 18:09 42.12328 22.65755 22826 ft 460 kts 69°
2026-04-22 18:09 42.13375 22.69806 21865 ft 454 kts 69°
2026-04-22 18:09 42.14405 22.73796 20937 ft 448 kts 70°
2026-04-22 18:10 42.15419 22.77734 20043 ft 441 kts 70°
2026-04-22 18:10 42.16413 22.81601 19174 ft 434 kts 70°
2026-04-22 18:10 42.17391 22.85412 18314 ft 426 kts 70°
2026-04-22 18:10 42.18348 22.89146 17494 ft 415 kts 70°
2026-04-22 18:11 42.19277 22.92775 16774 ft 404 kts 70°
2026-04-22 18:11 42.20177 22.96297 16136 ft 392 kts 70°
2026-04-22 18:11 42.21052 22.99725 15484 ft 381 kts 70°
2026-04-22 18:11 42.21904 23.03055 14856 ft 370 kts 69°
2026-04-22 18:12 42.23016 23.06127 14220 ft 361 kts 56°
2026-04-22 18:12 42.24531 23.08774 13604 ft 352 kts 49°
2026-04-22 18:12 42.25581 23.10419 13148 ft 347 kts 48°
2026-04-22 18:12 42.27677 23.13665 12326 ft 337 kts 47°
2026-04-22 18:13 42.29173 23.15990 12133 ft 318 kts 47°
2026-04-22 18:13 42.30574 23.18181 12046 ft 299 kts 48°
2026-04-22 18:13 42.31915 23.20286 12055 ft 295 kts 48°
2026-04-22 18:13 42.33257 23.22400 12070 ft 298 kts 48°
2026-04-22 18:14 42.34605 23.24529 12063 ft 298 kts 48°
2026-04-22 18:14 42.35951 23.26659 12069 ft 298 kts 48°
2026-04-22 18:14 42.37276 23.28761 12074 ft 298 kts 48°
2026-04-22 18:14 42.38622 23.30898 12056 ft 298 kts 48°
2026-04-22 18:15 42.39965 23.33033 12067 ft 298 kts 48°
2026-04-22 18:15 42.41309 23.35170 12071 ft 298 kts 48°
2026-04-22 18:15 42.42652 23.37308 12064 ft 298 kts 48°
2026-04-22 18:15 42.43991 23.39443 12072 ft 298 kts 48°
2026-04-22 18:16 42.45330 23.41579 12053 ft 298 kts 48°
2026-04-22 18:16 42.46656 23.43697 11921 ft 292 kts 48°
2026-04-22 18:16 42.47961 23.45782 11536 ft 289 kts 48°
2026-04-22 18:16 42.49256 23.47852 11008 ft 287 kts 48°
2026-04-22 18:17 42.50542 23.49910 10507 ft 285 kts 48°
2026-04-22 18:17 42.51814 23.51945 10043 ft 281 kts 48°
2026-04-22 18:17 42.53071 23.53959 9556 ft 278 kts 48°
2026-04-22 18:17 42.54312 23.55947 9033 ft 275 kts 48°
2026-04-22 18:18 42.55543 23.57922 8533 ft 273 kts 48°
2026-04-22 18:18 42.56761 23.59877 8062 ft 270 kts 48°
2026-04-22 18:18 42.57965 23.61811 7597 ft 267 kts 47°
2026-04-22 18:18 42.59126 23.63767 7143 ft 266 kts 56°
2026-04-22 18:19 42.59724 23.66139 6745 ft 267 kts 81°
2026-04-22 18:19 42.59708 23.68587 6653 ft 253 kts 91°
2026-04-22 18:19 42.59544 23.70929 6346 ft 246 kts 92°
2026-04-22 18:19 42.59679 23.73152 6032 ft 227 kts 61°
2026-04-22 18:20 42.60649 23.74651 6044 ft 205 kts 35°
2026-04-22 18:20 42.61805 23.75679 6015 ft 192 kts 27°
2026-04-22 18:20 42.62991 23.76400 6014 ft 183 kts 15°
2026-04-22 18:20 42.64209 23.76688 6021 ft 173 kts
2026-04-22 18:21 42.65366 23.76834 6011 ft 162 kts
2026-04-22 18:21 42.66442 23.76516 6014 ft 165 kts 323°
2026-04-22 18:21 42.66982 23.75137 6053 ft 172 kts 289°
2026-04-22 18:21 42.67311 23.73577 6044 ft 170 kts 290°
2026-04-22 18:22 42.67587 23.71995 5904 ft 176 kts 288°
2026-04-22 18:22 42.67842 23.70373 5690 ft 176 kts 284°
2026-04-22 18:22 42.68016 23.68756 5436 ft 169 kts 281°
2026-04-22 18:22 42.68134 23.67194 5228 ft 165 kts 279°
2026-04-22 18:23 42.68233 23.65636 5014 ft 167 kts 278°
2026-04-22 18:23 42.68328 23.64058 4789 ft 168 kts 277°
2026-04-22 18:23 42.68420 23.62475 4550 ft 167 kts 277°
2026-04-22 18:24 42.68602 23.59354 4086 ft 165 kts 276°
2026-04-22 18:24 42.68662 23.58327 3943 ft 165 kts 276°
2026-04-22 18:24 42.68838 23.55325 3503 ft 165 kts 275°
2026-04-22 18:25 42.68929 23.53778 3249 ft 164 kts 275°
2026-04-22 18:25 42.69020 23.52244 3004 ft 162 kts 274°
2026-04-22 18:25 42.69110 23.50721 2767 ft 161 kts 274°
2026-04-22 18:26 42.69287 23.47716 2342 ft 155 kts 275°
2026-04-22 18:26 42.69372 23.46269 2165 ft 154 kts 275°
2026-04-22 18:26 42.69462 23.44812 1941 ft 154 kts 275°
2026-04-22 18:26 42.69550 23.43369 1765 ft 148 kts 276°
2026-04-22 18:27 42.69631 23.42106 1750 ft 109 kts 274°
2026-04-22 18:27 42.69671 23.41371 1744 ft 48 kts 274°
2026-04-22 18:27 42.69673 23.40958 1748 ft 35 kts 256°
2026-04-22 18:27 42.69603 23.40699 1744 ft 20 kts 244°
2026-04-22 18:28 42.69598 23.40686 1746 ft 0 kts 244°
2026-04-22 18:29 42.69598 23.40685 1746 ft 1 kts 244°
2026-04-22 18:29 42.69585 23.40649 1745 ft 8 kts 244°
2026-04-22 18:29 42.69553 23.40557 1745 ft 13 kts 245°
2026-04-22 18:29 42.69481 23.40474 1744 ft 14 kts 199°
2026-04-22 18:30 42.69387 23.40434 1741 ft 14 kts 197°
2026-04-22 18:30 42.69210 23.40360 1745 ft 13 kts 196°
2026-04-22 18:30 42.69138 23.40396 1748 ft 13 kts 112°
2026-04-22 18:31 42.69111 23.40510 1745 ft 12 kts 107°
2026-04-22 18:31 42.69086 23.40621 1745 ft 12 kts 107°
2026-04-22 18:31 42.69064 23.40731 1748 ft 12 kts 104°
2026-04-22 18:31 42.69057 23.40811 1749 ft 3 kts 121°
2026-04-22 18:32 42.69043 23.40820 1743 ft 4 kts 156°
2026-04-22 18:32 42.69002 23.40839 1742 ft 6 kts 161°
2026-04-22 18:32 42.68982 23.40848 1744 ft 1 kts 161°
2026-04-22 18:32 42.68978 23.40850 1743 ft 0 kts 161°